| time (UTC) | temp F | wind direction | speed MPH | gust MPH | rain 1hr in | rain 24hr in | rain mn in | humidity % | barometer mb |
| 20260506231520 | 45 | 238 | 1.0 | 2.0 | 0.00 | 0.85 | 0.54 | 87 | 1010.6 |
| 20260506231011 | 45 | 256 | 0.0 | 1.0 | 0.00 | 0.85 | 0.54 | 87 | 1010.6 |
| 20260506230507 | 45 | 325 | 0.0 | 0.0 | 0.00 | 0.85 | 0.54 | 86 | 1010.3 |
| 20260506230026 | 45 | 325 | 0.0 | 0.0 | 0.00 | 0.85 | 0.54 | 86 | 1010.0 |
| 20260506225508 | 45 | 325 | 0.0 | 0.0 | 0.00 | 0.85 | 0.54 | 86 | 1010.2 |
| 20260506225009 | 45 | 18 | 0.0 | 0.0 | 0.00 | 0.85 | 0.54 | 85 | 1010.0 |
| 20260506224530 | 46 | 18 | 0.0 | 0.0 | 0.00 | 0.85 | 0.54 | 84 | 1010.1 |
| 20260506224011 | 46 | 18 | 0.0 | 0.0 | 0.00 | 0.85 | 0.54 | 85 | 1010.3 |
| 20260506223506 | 46 | 18 | 0.0 | 0.0 | 0.00 | 0.85 | 0.54 | 84 | 1010.3 |
| 20260506223012 | 46 | 18 | 0.0 | 0.0 | 0.00 | 0.85 | 0.54 | 85 | 1010.5 |
| 20260506222507 | 46 | 352 | 0.0 | 0.0 | 0.00 | 0.85 | 0.54 | 85 | 1010.7 |
| 20260506222008 | 46 | 301 | 0.0 | 0.0 | 0.00 | 0.85 | 0.54 | 84 | 1010.5 |
| 20260506221521 | 46 | 296 | 0.0 | 3.0 | 0.00 | 0.85 | 0.54 | 84 | 1010.5 |
| 20260506221006 | 46 | 360 | 0.0 | 3.0 | 0.00 | 0.85 | 0.54 | 84 | 1010.5 |
| 20260506220508 | 46 | 294 | 0.0 | 2.0 | 0.00 | 0.85 | 0.54 | 84 | 1010.5 |
| 20260506220034 | 46 | 343 | 0.0 | 2.0 | 0.00 | 0.85 | 0.54 | 85 | 1010.5 |
| 20260506215509 | 46 | 343 | 0.0 | 3.0 | 0.00 | 0.85 | 0.54 | 83 | 1010.5 |
| 20260506215008 | 47 | 352 | 0.0 | 3.0 | 0.00 | 0.85 | 0.54 | 84 | 1010.5 |
| 20260506214527 | 47 | 351 | 0.0 | 4.0 | 0.00 | 0.85 | 0.54 | 84 | 1010.3 |
| 20260506214009 | 47 | 351 | 1.0 | 5.0 | 0.00 | 0.85 | 0.54 | 84 | 1010.3 |
| 20260506213512 | 47 | 336 | 2.0 | 5.0 | 0.00 | 0.85 | 0.54 | 83 | 1010.3 |
| 20260506213028 | 47 | 360 | 1.0 | 2.0 | 0.00 | 0.85 | 0.54 | 85 | 1010.2 |
| 20260506212510 | 47 | 342 | 1.0 | 2.0 | 0.00 | 0.85 | 0.54 | 85 | 1010.1 |
| 20260506212009 | 46 | 49 | 1.0 | 4.0 | 0.00 | 0.85 | 0.54 | 87 | 1010.1 |
| 20260506211527 | 46 | 352 | 1.0 | 5.0 | 0.00 | 0.85 | 0.54 | 87 | 1010.1 |
| 20260506211010 | 46 | 333 | 2.0 | 5.0 | 0.00 | 0.85 | 0.54 | 85 | 1010.2 |
| 20260506210510 | 46 | 261 | 0.0 | 3.0 | 0.00 | 0.85 | 0.54 | 87 | 1010.2 |
| 20260506210008 | 46 | 13 | 0.0 | 4.0 | 0.00 | 0.85 | 0.54 | 88 | 1010.3 |
| 20260506205513 | 46 | 352 | 0.0 | 4.0 | 0.00 | 0.85 | 0.54 | 87 | 1010.1 |
| 20260506205003 | 46 | 17 | 1.0 | 4.0 | 0.00 | 0.85 | 0.54 | 86 | 1010.0 |
| 20260506204527 | 46 | 281 | 2.0 | 3.0 | 0.00 | 0.85 | 0.54 | 87 | 1010.0 |
| 20260506204008 | 46 | 315 | 1.0 | 5.0 | 0.00 | 0.85 | 0.54 | 88 | 1009.9 |
| 20260506203510 | 46 | 335 | 1.0 | 5.0 | 0.00 | 0.85 | 0.54 | 1009.8 | |
| 20260506203020 | 46 | 5 | 2.0 | 4.0 | 0.00 | 0.85 | 0.54 | 89 | 1009.8 |
| 20260506202509 | 46 | 351 | 1.0 | 3.0 | 0.00 | 0.85 | 0.54 | 89 | 1009.7 |
| 20260506202009 | 45 | 9 | 2.0 | 3.0 | 0.00 | 0.85 | 0.54 | 91 | 1009.7 |
| 20260506201524 | 45 | 352 | 1.0 | 3.0 | 0.00 | 0.85 | 0.54 | 90 | 1009.7 |
| 20260506201009 | 45 | 336 | 0.0 | 3.0 | 0.00 | 0.85 | 0.54 | 91 | 1009.6 |
| 20260506200508 | 45 | 352 | 1.0 | 3.0 | 0.00 | 0.85 | 0.54 | 91 | 1009.6 |
| 20260506200026 | 45 | 338 | 0.0 | 3.0 | 0.00 | 0.85 | 0.54 | 91 | 1009.7 |
| 20260506195503 | 45 | 340 | 0.0 | 3.0 | 0.00 | 0.85 | 0.54 | 90 | 1009.7 |
| 20260506195009 | 45 | 334 | 1.0 | 4.0 | 0.00 | 0.85 | 0.54 | 90 | 1009.8 |
| 20260506194534 | 45 | 351 | 0.0 | 4.0 | 0.00 | 0.85 | 0.54 | 91 | 1009.9 |
| 20260506194013 | 45 | 5 | 2.0 | 5.0 | 0.00 | 0.85 | 0.54 | 91 | 1009.8 |
| 20260506193506 | 45 | 338 | 1.0 | 5.0 | 0.00 | 0.85 | 0.54 | 91 | 1009.9 |
| 20260506193022 | 45 | 312 | 2.0 | 4.0 | 0.00 | 0.85 | 0.54 | 92 | 1009.8 |
| 20260506192510 | 45 | 340 | 2.0 | 6.0 | 0.00 | 0.85 | 0.54 | 92 | 1009.7 |
| 20260506192011 | 45 | 309 | 1.0 | 6.0 | 0.00 | 0.85 | 0.54 | 92 | 1009.6 |
| 20260506191527 | 45 | 340 | 1.0 | 7.0 | 0.00 | 0.85 | 0.54 | 92 | 1009.5 |
| 20260506191007 | 45 | 331 | 3.0 | 7.0 | 0.00 | 0.85 | 0.54 | 91 | 1009.5 |
| 20260506190505 | 45 | 360 | 2.0 | 6.0 | 0.00 | 0.85 | 0.54 | 91 | 1009.5 |
| 20260506190012 | 45 | 298 | 1.0 | 5.0 | 0.00 | 0.85 | 0.54 | 91 | 1009.4 |
| 20260506185504 | 45 | 351 | 1.0 | 4.0 | 0.00 | 0.85 | 0.54 | 91 | 1009.4 |
| 20260506185006 | 45 | 343 | 2.0 | 5.0 | 0.00 | 0.85 | 0.54 | 91 | 1009.4 |
| 20260506184524 | 45 | 352 | 2.0 | 7.0 | 0.00 | 0.85 | 0.54 | 91 | 1009.5 |
| 20260506184006 | 45 | 337 | 2.0 | 7.0 | 0.00 | 0.85 | 0.54 | 91 | 1009.5 |
| 20260506183511 | 45 | 341 | 2.0 | 3.0 | 0.00 | 0.85 | 0.54 | 91 | 1009.5 |
| 20260506183027 | 45 | 346 | 1.0 | 5.0 | 0.00 | 0.85 | 0.54 | 91 | 1009.5 |
| 20260506182507 | 45 | 360 | 0.0 | 5.0 | 0.00 | 0.85 | 0.54 | 91 | 1009.2 |
| 20260506182010 | 45 | 348 | 1.0 | 3.0 | 0.00 | 0.85 | 0.54 | 92 | 1009.2 |
| 20260506181525 | 45 | 288 | 1.0 | 6.0 | 0.00 | 0.85 | 0.54 | 92 | 1009.1 |
| 20260506181011 | 45 | 28 | 1.0 | 8.0 | 0.00 | 0.85 | 0.54 | 91 | 1009.0 |
| 20260506180504 | 45 | 330 | 2.0 | 8.0 | 0.00 | 0.85 | 0.54 | 92 | 1009.0 |
| 20260506180014 | 45 | 346 | 0.0 | 4.0 | 0.00 | 0.85 | 0.54 | 92 | 1008.8 |
| 20260506175509 | 45 | 360 | 2.0 | 3.0 | 0.00 | 0.85 | 0.54 | 93 | 1008.8 |
| 20260506175006 | 46 | 277 | 1.0 | 3.0 | 0.00 | 0.85 | 0.54 | 93 | 1008.7 |
| 20260506174529 | 45 | 345 | 1.0 | 2.0 | 0.00 | 0.85 | 0.54 | 93 | 1008.6 |
| 20260506174007 | 45 | 341 | 0.0 | 3.0 | 0.00 | 0.85 | 0.54 | 93 | 1008.7 |
| 20260506173507 | 45 | 5 | 0.0 | 3.0 | 0.00 | 0.85 | 0.54 | 93 | 1008.7 |
| 20260506173024 | 45 | 338 | 0.0 | 5.0 | 0.00 | 0.85 | 0.54 | 92 | 1008.7 |
| 20260506172509 | 45 | 321 | 1.0 | 5.0 | 0.00 | 0.85 | 0.54 | 92 | 1008.8 |
| 20260506172011 | 45 | 5 | 1.0 | 4.0 | 0.00 | 0.85 | 0.54 | 92 | 1008.7 |
| 20260506171527 | 46 | 273 | 1.0 | 3.0 | 0.00 | 0.85 | 0.54 | 93 | 1008.7 |
| 20260506171013 | 46 | 23 | 2.0 | 3.0 | 0.00 | 0.85 | 0.54 | 93 | 1008.5 |
| 20260506170508 | 46 | 333 | 0.0 | 3.0 | 0.00 | 0.85 | 0.54 | 93 | 1008.4 |
| 20260506170025 | 46 | 342 | 1.0 | 3.0 | 0.00 | 0.85 | 0.54 | 93 | 1008.4 |
| 20260506165506 | 46 | 22 | 1.0 | 3.0 | 0.00 | 0.85 | 0.54 | 93 | 1008.4 |
| 20260506165010 | 46 | 328 | 0.0 | 2.0 | 0.00 | 0.85 | 0.54 | 93 | 1008.4 |
| 20260506164531 | 46 | 360 | 1.0 | 3.0 | 0.00 | 0.85 | 0.54 | 93 | 1008.5 |
| 20260506164009 | 46 | 322 | 1.0 | 2.0 | 0.00 | 0.85 | 0.54 | 93 | 1008.4 |
| 20260506163508 | 46 | 342 | 1.0 | 3.0 | 0.00 | 0.85 | 0.54 | 93 | 1008.5 |
| 20260506163026 | 46 | 334 | 1.0 | 3.0 | 0.00 | 0.85 | 0.54 | 94 | 1008.5 |
| 20260506162509 | 46 | 348 | 0.0 | 2.0 | 0.00 | 0.85 | 0.54 | 94 | 1008.5 |
| 20260506162012 | 46 | 290 | 0.0 | 2.0 | 0.00 | 0.85 | 0.54 | 94 | 1008.5 |
| 20260506161526 | 45 | 309 | 0.0 | 3.0 | 0.00 | 0.85 | 0.54 | 94 | 1008.5 |
| 20260506161003 | 45 | 352 | 0.0 | 4.0 | 0.00 | 0.85 | 0.54 | 93 | 1008.6 |
| 20260506160509 | 45 | 316 | 1.0 | 4.0 | 0.00 | 0.85 | 0.54 | 94 | 1008.7 |
| 20260506160033 | 45 | 300 | 2.0 | 3.0 | 0.00 | 0.85 | 0.54 | 94 | 1008.8 |
| 20260506155511 | 45 | 290 | 1.0 | 3.0 | 0.00 | 0.85 | 0.54 | 94 | 1008.8 |
| 20260506155009 | 45 | 341 | 1.0 | 2.0 | 0.00 | 0.85 | 0.54 | 94 | 1008.7 |
| 20260506154525 | 45 | 342 | 1.0 | 2.0 | 0.00 | 0.85 | 0.54 | 94 | 1008.9 |
| 20260506154009 | 45 | 341 | 1.0 | 2.0 | 0.00 | 0.85 | 0.54 | 94 | 1009.0 |
| 20260506153510 | 45 | 338 | 0.0 | 2.0 | 0.00 | 0.85 | 0.54 | 94 | 1009.0 |
| 20260506153026 | 44 | 330 | 1.0 | 2.0 | 0.00 | 0.85 | 0.54 | 93 | 1009.0 |
| 20260506152514 | 45 | 326 | 1.0 | 2.0 | 0.00 | 0.85 | 0.54 | 94 | 1009.0 |
| 20260506152012 | 45 | 336 | 1.0 | 1.0 | 0.00 | 0.85 | 0.54 | 94 | 1009.0 |
| 20260506151528 | 45 | 336 | 0.0 | 2.0 | 0.00 | 0.85 | 0.54 | 94 | 1008.7 |
| 20260506151010 | 45 | 339 | 0.0 | 1.0 | 0.00 | 0.85 | 0.54 | 94 | 1008.8 |
| 20260506150506 | 45 | 336 | 0.0 | 0.0 | 0.00 | 0.85 | 0.54 | 94 | 1008.8 |
| 20260506150020 | 45 | 317 | 0.0 | 1.0 | 0.00 | 0.85 | 0.54 | 94 | 1008.4 |
| 20260506145510 | 45 | 317 | 0.0 | 2.0 | 0.01 | 0.85 | 0.54 | 94 | 1008.6 |
| 20260506145009 | 45 | 303 | 0.0 | 2.0 | 0.01 | 0.85 | 0.54 | 94 | 1008.4 |
| 20260506144531 | 45 | 296 | 0.0 | 0.0 | 0.01 | 0.85 | 0.54 | 94 | 1008.3 |
| 20260506144017 | 45 | 296 | 0.0 | 0.0 | 0.01 | 0.85 | 0.54 | 94 | 1008.2 |
| 20260506143512 | 45 | 298 | 0.0 | 2.0 | 0.02 | 0.85 | 0.54 | 94 | 1008.3 |
| 20260506143033 | 44 | 298 | 0.0 | 1.0 | 0.02 | 0.85 | 0.54 | 94 | 1008.2 |
| 20260506142510 | 44 | 317 | 0.0 | 1.0 | 0.02 | 0.85 | 0.54 | 94 | 1008.3 |
| 20260506142014 | 44 | 215 | 0.0 | 1.0 | 0.03 | 0.85 | 0.54 | 94 | 1008.4 |
| 20260506141528 | 44 | 215 | 0.0 | 2.0 | 0.03 | 0.85 | 0.54 | 95 | 1008.4 |
| 20260506141007 | 44 | 205 | 0.0 | 2.0 | 0.03 | 0.85 | 0.54 | 94 | 1008.4 |
| 20260506140512 | 44 | 321 | 0.0 | 2.0 | 0.04 | 0.85 | 0.54 | 94 | 1008.4 |
| 20260506140034 | 44 | 279 | 0.0 | 1.0 | 0.04 | 0.85 | 0.54 | 94 | 1008.5 |
| 20260506135507 | 43 | 320 | 0.0 | 2.0 | 0.04 | 0.84 | 0.52 | 94 | 1008.4 |
| 20260506135014 | 43 | 345 | 0.0 | 2.0 | 0.05 | 0.84 | 0.52 | 94 | 1008.6 |
| 20260506134526 | 43 | 352 | 0.0 | 2.0 | 0.05 | 0.84 | 0.52 | 94 | 1008.5 |
| 20260506134014 | 43 | 9 | 0.0 | 2.0 | 0.06 | 0.84 | 0.52 | 94 | 1008.5 |
| 20260506133512 | 43 | 10 | 0.0 | 1.0 | 0.06 | 0.83 | 0.52 | 94 | 1008.5 |
| 20260506133027 | 43 | 11 | 0.0 | 2.0 | 0.07 | 0.83 | 0.52 | 94 | 1008.6 |
| 20260506132513 | 43 | 352 | 0.0 | 2.0 | 0.08 | 0.83 | 0.52 | 94 | 1008.7 |
| 20260506132012 | 43 | 288 | 0.0 | 2.0 | 0.07 | 0.82 | 0.51 | 94 | 1008.7 |
| 20260506131538 | 43 | 340 | 0.0 | 2.0 | 0.08 | 0.82 | 0.51 | 94 | 1008.7 |
| 20260506131006 | 43 | 319 | 0.0 | 1.0 | 0.08 | 0.82 | 0.51 | 94 | 1008.8 |
| 20260506130507 | 43 | 328 | 0.0 | 0.0 | 0.07 | 0.81 | 0.50 | 94 | 1008.7 |
| 20260506130036 | 43 | 273 | 0.0 | 0.0 | 0.07 | 0.81 | 0.50 | 94 | 1008.8 |
| 20260506125508 | 43 | 331 | 0.0 | 0.0 | 0.06 | 0.80 | 0.49 | 94 | 1008.8 |
| 20260506125008 | 43 | 322 | 0.0 | 0.0 | 0.06 | 0.79 | 0.48 | 94 | 1008.7 |
| 20260506124525 | 43 | 322 | 0.0 | 0.0 | 0.06 | 0.79 | 0.48 | 94 | 1008.7 |
| 20260506124011 | 43 | 322 | 0.0 | 0.0 | 0.05 | 0.78 | 0.47 | 94 | 1008.8 |
| 20260506123510 | 43 | 322 | 0.0 | 2.0 | 0.05 | 0.77 | 0.46 | 94 | 1008.6 |
| 20260506123028 | 43 | 323 | 0.0 | 2.0 | 0.05 | 0.76 | 0.45 | 94 | 1008.7 |
| 20260506122508 | 43 | 340 | 0.0 | 0.0 | 0.06 | 0.75 | 0.44 | 94 | 1008.5 |
| 20260506122012 | 43 | 9 | 0.0 | 2.0 | 0.07 | 0.75 | 0.44 | 94 | 1008.5 |
| 20260506121522 | 43 | 9 | 0.0 | 2.0 | 0.07 | 0.74 | 0.43 | 94 | 1008.6 |
| 20260506121013 | 43 | 9 | 0.0 | 3.0 | 0.08 | 0.74 | 0.43 | 94 | 1008.4 |
| 20260506120511 | 43 | 51 | 0.0 | 3.0 | 0.09 | 0.74 | 0.43 | 94 | 1008.3 |
| 20260506120024 | 43 | 96 | 0.0 | 2.0 | 0.10 | 0.74 | 0.43 | 94 | 1008.3 |
| 20260506115503 | 43 | 5 | 0.0 | 2.0 | 0.11 | 0.74 | 0.43 | 94 | 1008.5 |
| 20260506115003 | 43 | 40 | 0.0 | 2.0 | 0.10 | 0.73 | 0.42 | 94 | 1008.4 |
| 20260506114511 | 43 | 54 | 0.0 | 2.0 | 0.11 | 0.73 | 0.42 | 94 | 1008.5 |
| 20260506114005 | 43 | 334 | 0.0 | 2.0 | 0.12 | 0.73 | 0.42 | 94 | 1008.8 |
| 20260506113504 | 43 | 50 | 0.0 | 2.0 | 0.11 | 0.72 | 0.41 | 94 | 1008.8 |
| 20260506113030 | 43 | 245 | 0.0 | 2.0 | 0.11 | 0.71 | 0.40 | 94 | 1008.6 |
| 20260506112507 | 43 | 27 | 0.0 | 2.0 | 0.09 | 0.69 | 0.38 | 94 | 1008.7 |
| 20260506112007 | 43 | 336 | 0.0 | 2.0 | 0.09 | 0.68 | 0.37 | 94 | 1008.7 |
| 20260506111524 | 43 | 352 | 0.0 | 2.0 | 0.10 | 0.67 | 0.36 | 94 | 1008.8 |
| 20260506111007 | 43 | 318 | 1.0 | 2.0 | 0.09 | 0.66 | 0.35 | 94 | 1009.0 |
| 20260506110508 | 43 | 350 | 0.0 | 2.0 | 0.09 | 0.65 | 0.34 | 94 | 1009.0 |
| 20260506110009 | 43 | 331 | 0.0 | 2.0 | 0.08 | 0.64 | 0.33 | 94 | 1009.0 |
| 20260506105504 | 43 | 360 | 1.0 | 2.0 | 0.07 | 0.63 | 0.32 | 94 | 1009.2 |
| 20260506105004 | 43 | 316 | 1.0 | 1.0 | 0.07 | 0.63 | 0.32 | 94 | 1009.2 |
| 20260506104512 | 44 | 5 | 0.0 | 1.0 | 0.06 | 0.62 | 0.31 | 94 | 1009.0 |
| 20260506104003 | 44 | 346 | 0.0 | 0.0 | 0.06 | 0.61 | 0.30 | 94 | 1009.0 |
| 20260506103507 | 44 | 13 | 0.0 | 1.0 | 0.06 | 0.61 | 0.30 | 94 | 1008.8 |
| 20260506103029 | 43 | 92 | 0.0 | 1.0 | 0.05 | 0.60 | 0.29 | 94 | 1008.6 |
| 20260506102508 | 43 | 20 | 0.0 | 0.0 | 0.06 | 0.60 | 0.29 | 94 | 1008.5 |
| 20260506102010 | 43 | 20 | 0.0 | 0.0 | 0.05 | 0.58 | 0.28 | 94 | 1008.5 |
| 20260506101524 | 43 | 314 | 0.0 | 0.0 | 0.03 | 0.57 | 0.26 | 94 | 1008.8 |
| 20260506101006 | 43 | 313 | 0.0 | 0.0 | 0.04 | 0.57 | 0.26 | 94 | 1008.7 |
| 20260506100506 | 43 | 83 | 0.0 | 2.0 | 0.03 | 0.56 | 0.25 | 94 | 1008.6 |
| 20260506100011 | 43 | 90 | 0.0 | 2.0 | 0.04 | 0.56 | 0.25 | 94 | 1008.4 |
| 20260506095507 | 43 | 98 | 1.0 | 2.0 | 0.04 | 0.56 | 0.25 | 94 | 1008.5 |
| 20260506095005 | 43 | 82 | 0.0 | 2.0 | 0.04 | 0.56 | 0.25 | 94 | 1008.3 |
| 20260506094518 | 43 | 115 | 0.0 | 4.0 | 0.05 | 0.56 | 0.25 | 94 | 1008.3 |
| 20260506094009 | 44 | 102 | 1.0 | 4.0 | 0.04 | 0.55 | 0.24 | 94 | 1008.3 |
| 20260506093507 | 44 | 111 | 0.0 | 2.0 | 0.04 | 0.55 | 0.24 | 94 | 1008.6 |
| 20260506093026 | 44 | 140 | 0.0 | 2.0 | 0.05 | 0.55 | 0.24 | 94 | 1008.7 |
| 20260506092510 | 44 | 141 | 0.0 | 1.0 | 0.04 | 0.54 | 0.23 | 94 | 1008.9 |
| 20260506092014 | 44 | 141 | 0.0 | 2.0 | 0.04 | 0.54 | 0.23 | 94 | 1009.3 |
| 20260506091527 | 44 | 141 | 0.0 | 2.0 | 0.05 | 0.54 | 0.23 | 94 | 1009.4 |
| 20260506091007 | 44 | 141 | 0.0 | 2.0 | 0.05 | 0.52 | 0.22 | 94 | 1009.5 |
| 20260506090504 | 44 | 56 | 0.0 | 3.0 | 0.05 | 0.52 | 0.22 | 94 | 1009.3 |
| 20260506090010 | 44 | 138 | 0.0 | 3.0 | 0.05 | 0.52 | 0.21 | 94 | 1009.3 |
| 20260506085506 | 44 | 166 | 0.0 | 1.0 | 0.07 | 0.52 | 0.21 | 94 | 1009.4 |
| 20260506085003 | 44 | 166 | 0.0 | 3.0 | 0.07 | 0.52 | 0.21 | 94 | 1009.4 |
| 20260506084518 | 44 | 167 | 0.0 | 3.0 | 0.06 | 0.51 | 0.20 | 94 | 1009.3 |
| 20260506084008 | 44 | 167 | 0.0 | 3.0 | 0.06 | 0.51 | 0.20 | 94 | 1009.4 |
| 20260506083508 | 44 | 105 | 0.0 | 2.0 | 0.06 | 0.51 | 0.20 | 94 | 1009.3 |
| 20260506083025 | 44 | 317 | 0.0 | 2.0 | 0.05 | 0.50 | 0.19 | 94 | 1009.3 |
| 20260506082513 | 44 | 24 | 0.0 | 3.0 | 0.05 | 0.50 | 0.19 | 94 | 1009.3 |
| 20260506082006 | 44 | 12 | 0.0 | 3.0 | 0.05 | 0.50 | 0.19 | 93 | 1009.3 |
| 20260506081530 | 44 | 115 | 2.0 | 3.0 | 0.04 | 0.49 | 0.18 | 93 | 1009.2 |
| 20260506081010 | 44 | 244 | 1.0 | 3.0 | 0.04 | 0.48 | 0.17 | 93 | 1009.4 |
| 20260506080503 | 44 | 322 | 1.0 | 3.0 | 0.04 | 0.48 | 0.17 | 93 | 1009.4 |
| 20260506073508 | 44 | 345 | 1.0 | 1.0 | 0.02 | 0.45 | 0.14 | 93 | 1009.6 |
| 20260506073024 | 44 | 309 | 0.0 | 1.0 | 0.02 | 0.45 | 0.14 | 93 | 1009.3 |
| 20260506072508 | 44 | 316 | 0.0 | 1.0 | 0.03 | 0.45 | 0.14 | 93 | 1009.3 |
| 20260506072011 | 44 | 316 | 0.0 | 2.0 | 0.03 | 0.45 | 0.14 | 92 | 1009.4 |
| 20260506071529 | 45 | 26 | 0.0 | 2.0 | 0.04 | 0.45 | 0.14 | 92 | 1009.1 |
| 20260506071011 | 45 | 276 | 0.0 | 2.0 | 0.04 | 0.44 | 0.13 | 92 | 1009.0 |
| 20260506070512 | 46 | 46 | 0.0 | 3.0 | 0.05 | 0.44 | 0.13 | 93 | 1009.1 |
| 20260506062513 | 47 | 38 | 0.0 | 4.0 | 0.05 | 0.42 | 0.11 | 94 | 1009.6 |
| 20260506062009 | 47 | 74 | 0.0 | 4.0 | 0.05 | 0.42 | 0.11 | 94 | 1009.4 |
| 20260506061528 | 47 | 98 | 1.0 | 2.0 | 0.04 | 0.41 | 0.10 | 94 | 1009.4 |
| 20260506061003 | 47 | 92 | 0.0 | 4.0 | 0.03 | 0.40 | 0.09 | 94 | 1009.4 |
| 20260506060510 | 47 | 114 | 1.0 | 4.0 | 0.02 | 0.39 | 0.08 | 94 | 1009.6 |
| 20260506051015 | 47 | 152 | 0.0 | 2.0 | 0.05 | 0.37 | 0.06 | 94 | 1010.4 |
| 20260506050505 | 47 | 234 | 0.0 | 2.0 | 0.05 | 0.37 | 0.06 | 94 | 1010.4 |
| 20260506045007 | 47 | 302 | 0.0 | 2.0 | 0.06 | 0.37 | 0.06 | 94 | 1010.5 |
| 20260506044523 | 47 | 244 | 0.0 | 2.0 | 0.07 | 0.37 | 0.06 | 94 | 1010.6 |
| 20260506044010 | 47 | 248 | 0.0 | 2.0 | 0.08 | 0.36 | 0.05 | 94 | 1010.8 |
| 20260506043509 | 47 | 279 | 0.0 | 2.0 | 0.09 | 0.36 | 0.05 | 94 | 1010.4 |
| 20260506043029 | 47 | 262 | 1.0 | 2.0 | 0.08 | 0.35 | 0.04 | 94 | 1011.0 |
| 20260506042507 | 47 | 304 | 0.0 | 2.0 | 0.07 | 0.33 | 0.02 | 93 | 1010.3 |
| 20260506042012 | 47 | 304 | 0.0 | 2.0 | 0.07 | 0.33 | 0.02 | 93 | 1010.4 |
| 20260506041528 | 47 | 84 | 1.0 | 2.0 | 0.07 | 0.32 | 0.01 | 93 | 1009.8 |
| 20260506041006 | 47 | 154 | 0.0 | 0.0 | 0.08 | 0.32 | 0.01 | 93 | 1010.4 |
| 20260506040506 | 47 | 154 | 0.0 | 0.0 | 0.08 | 0.32 | 0.01 | 93 | 1010.6 |
| 20260506040022 | 47 | 154 | 0.0 | 2.0 | 0.07 | 0.31 | 0.00 | 93 | 1010.4 |
| 20260506035512 | 47 | 130 | 0.0 | 2.0 | 0.08 | 0.31 | 0.31 | 93 | 1010.3 |
| 20260506035011 | 47 | 103 | 0.0 | 2.0 | 0.09 | 0.31 | 0.31 | 93 | 1010.1 |
| 20260506034528 | 47 | 100 | 0.0 | 2.0 | 0.08 | 0.30 | 0.30 | 93 | 1010.4 |
| 20260506034009 | 47 | 98 | 0.0 | 1.0 | 0.06 | 0.28 | 0.28 | 93 | 1010.8 |
| 20260506033510 | 47 | 109 | 1.0 | 2.0 | 0.06 | 0.27 | 0.27 | 93 | 1010.4 |
| 20260506033029 | 47 | 134 | 1.0 | 2.0 | 0.06 | 0.27 | 0.27 | 93 | 1010.2 |
| 20260506032510 | 47 | 136 | 0.0 | 2.0 | 0.06 | 0.26 | 0.26 | 93 | 1010.2 |
| 20260506032012 | 47 | 136 | 0.0 | 2.0 | 0.06 | 0.26 | 0.26 | 93 | 1010.0 |
| 20260506031518 | 47 | 136 | 0.0 | 2.0 | 0.06 | 0.25 | 0.25 | 93 | 1010.2 |
| 20260506031007 | 47 | 214 | 0.0 | 2.0 | 0.06 | 0.24 | 0.24 | 93 | 1010.6 |
| 20260506030511 | 47 | 214 | 0.0 | 2.0 | 0.06 | 0.24 | 0.24 | 93 | 1010.5 |
| 20260506030029 | 47 | 214 | 0.0 | 0.0 | 0.07 | 0.24 | 0.24 | 93 | 1010.9 |
| 20260506025508 | 47 | 214 | 0.0 | 1.0 | 0.06 | 0.23 | 0.23 | 93 | 1010.8 |
| 20260506025009 | 47 | 214 | 0.0 | 1.0 | 0.06 | 0.22 | 0.22 | 93 | 1011.2 |
| 20260506024541 | 47 | 214 | 0.0 | 2.0 | 0.08 | 0.22 | 0.22 | 93 | 1011.1 |
| 20260506024012 | 47 | 214 | 0.0 | 2.0 | 0.08 | 0.22 | 0.22 | 92 | 1010.9 |
| 20260506023510 | 47 | 214 | 0.0 | 2.0 | 0.08 | 0.21 | 0.21 | 92 | 1010.8 |
| 20260506023030 | 47 | 212 | 0.0 | 0.0 | 0.09 | 0.21 | 0.21 | 92 | 1010.4 |
| 20260506022513 | 47 | 212 | 0.0 | 0.0 | 0.09 | 0.20 | 0.20 | 92 | 1011.1 |
| 20260506022010 | 47 | 212 | 0.0 | 0.0 | 0.10 | 0.20 | 0.20 | 92 | 1011.3 |
| 20260506021518 | 47 | 212 | 0.0 | 0.0 | 0.10 | 0.19 | 0.19 | 92 | 1010.8 |
| 20260506021011 | 48 | 212 | 0.0 | 0.0 | 0.10 | 0.18 | 0.18 | 92 | 1010.9 |
| 20260506020508 | 48 | 166 | 0.0 | 0.0 | 0.11 | 0.18 | 0.18 | 92 | 1010.6 |
| 20260506020029 | 48 | 166 | 0.0 | 0.0 | 0.11 | 0.17 | 0.17 | 92 | 1010.6 |
| 20260506015509 | 48 | 166 | 0.0 | 0.0 | 0.11 | 0.17 | 0.17 | 92 | 1010.7 |
| 20260506015009 | 48 | 166 | 0.0 | 0.0 | 0.10 | 0.16 | 0.16 | 92 | 1010.4 |
| 20260506014529 | 48 | 166 | 0.0 | 0.0 | 0.08 | 0.14 | 0.14 | 91 | 1010.3 |
| 20260506014009 | 48 | 166 | 0.0 | 0.0 | 0.09 | 0.14 | 0.14 | 91 | 1010.6 |
| 20260506013511 | 48 | 166 | 0.0 | 0.0 | 0.08 | 0.13 | 0.13 | 91 | 1010.4 |
| 20260506013034 | 48 | 167 | 0.0 | 1.0 | 0.08 | 0.12 | 0.12 | 91 | 1010.4 |
| 20260506012510 | 48 | 166 | 0.0 | 2.0 | 0.08 | 0.11 | 0.11 | 91 | 1010.4 |
| 20260506012006 | 48 | 110 | 0.0 | 2.0 | 0.07 | 0.10 | 0.10 | 91 | 1010.2 |
| 20260506011526 | 48 | 315 | 0.0 | 0.0 | 0.07 | 0.09 | 0.09 | 90 | 1010.3 |
| 20260506011011 | 48 | 219 | 0.0 | 0.0 | 0.06 | 0.08 | 0.08 | 90 | 1010.5 |
| 20260506010508 | 48 | 148 | 0.0 | 0.0 | 0.07 | 0.07 | 0.07 | 90 | 1010.2 |
| 20260506010030 | 48 | 169 | 0.0 | 0.0 | 0.06 | 0.06 | 0.06 | 90 | 1010.2 |
| 20260506005509 | 48 | 187 | 0.0 | 1.0 | 0.06 | 0.06 | 0.06 | 89 | 1010.4 |
| 20260506005007 | 48 | 187 | 0.0 | 1.0 | 0.06 | 0.06 | 0.06 | 89 | 1010.2 |
| 20260506004526 | 48 | 279 | 0.0 | 2.0 | 0.06 | 0.06 | 0.06 | 89 | 1010.2 |
| 20260506004006 | 48 | 278 | 0.0 | 2.0 | 0.05 | 0.05 | 0.05 | 1010.3 | |
| 20260506003503 | 48 | 207 | 0.0 | 2.0 | 0.05 | 0.05 | 0.05 | 1010.4 | |
| 20260506003018 | 48 | 207 | 1.0 | 2.0 | 0.04 | 0.04 | 0.04 | 1010.4 | |
| 20260506002506 | 49 | 248 | 0.0 | 4.0 | 0.03 | 0.03 | 0.03 | 84 | 1010.4 |
| 20260506002010 | 49 | 318 | 0.0 | 4.0 | 0.03 | 0.03 | 0.03 | 84 | 1009.8 |
| 20260506001527 | 50 | 10 | 1.0 | 6.0 | 0.02 | 0.02 | 0.02 | 83 | 1009.7 |
| 20260506001007 | 50 | 350 | 0.0 | 9.0 | 0.02 | 0.02 | 0.02 | 80 | 1009.8 |
| 20260506000504 | 52 | 352 | 2.0 | 9.0 | 0.00 | 0.00 | 0.00 | 69 | 1009.7 |
| 20260506000007 | 53 | 360 | 4.0 | 12.0 | 0.00 | 0.00 | 0.00 | 68 | 1009.8 |
| 20260505235509 | 54 | 360 | 3.0 | 12.0 | 0.00 | 0.00 | 0.00 | 64 | 1009.7 |
| 20260505235004 | 54 | 351 | 2.0 | 8.0 | 0.00 | 0.00 | 0.00 | 64 | 1009.5 |
| 20260505234526 | 55 | 307 | 1.0 | 7.0 | 0.00 | 0.00 | 0.00 | 63 | 1009.1 |
| 20260505234005 | 55 | 342 | 2.0 | 9.0 | 0.00 | 0.00 | 0.00 | 62 | 1008.9 |
| 20260505233505 | 56 | 9 | 1.0 | 9.0 | 0.00 | 0.00 | 0.00 | 63 | 1008.6 |
| 20260505233021 | 56 | 292 | 5.0 | 12.0 | 0.00 | 0.00 | 0.00 | 63 | 1008.5 |
| 20260505232509 | 57 | 16 | 3.0 | 12.0 | 0.00 | 0.00 | 0.00 | 63 | 1008.3 |
| 20260505232009 | 57 | 360 | 6.0 | 12.0 | 0.00 | 0.00 | 0.00 | 62 | 1008.3 |